EW5029 Weather Reports


Display with metric or nautical units.
time (UTC)temp
F
wind
direction
speed
MPH
gust
MPH
rain 1hr
in
rain 24hr
in
rain mn
in
humidity
%
barometer
mb
20260901103525 66 231 3.0 14.0 0.00 0.15 0.13 69 1020.1
20260901103024 66 335 6.0 13.0 0.00 0.15 0.13 70 1020.1
20260901102523 66 24 5.0 16.0 0.00 0.15 0.13 71 1020.1
20260901102023 66 48 6.0 16.0 0.00 0.15 0.13 68 1020.0
20260901101522 67 243 7.0 15.0 0.00 0.15 0.13 68 1020.0
20260901101021 67 309 4.0 12.0 0.00 0.15 0.13 71 1020.0
20260901100520 66 355 1.0 12.0 0.00 0.15 0.13 72 1020.0
20260901100020 66 333 3.0 14.0 0.00 0.15 0.13 70 1019.9
20260901095518 66 326 6.0 14.0 0.00 0.43 0.13 70 1020.0
20260901095018 66 265 4.0 14.0 0.00 0.43 0.13 72 1020.0
20260901094517 66 14 5.0 14.0 0.00 0.43 0.13 71 1019.9
20260901094016 66 346 5.0 12.0 0.00 0.43 0.13 72 1019.8
20260901093515 66 219 3.0 12.0 0.00 0.43 0.13 73 1019.8
20260901093015 66 269 3.0 11.0 0.00 0.43 0.13 73 1019.7
20260901092514 66 313 4.0 8.0 0.00 0.43 0.13 73 1019.8
20260901092013 66 35 2.0 11.0 0.00 0.43 0.13 75 1019.7
20260901091517 66 360 4.0 11.0 0.00 0.43 0.13 72 1019.7
20260901091011 66 325 3.0 13.0 0.00 0.43 0.13 74 1019.8
20260901090510 66 337 4.0 13.0 0.00 0.43 0.13 74 1019.7
20260901090013 65 331 6.0 12.0 0.00 0.43 0.13 73 1019.7
20260901085507 66 325 4.0 10.0 0.00 0.43 0.13 77 1019.6
20260901085006 65 327 4.0 14.0 0.00 0.43 0.13 76 1019.5
20260901084505 65 314 4.0 14.0 0.00 0.43 0.13 76 1019.5
20260901084006 65 333 4.0 10.0 0.00 0.43 0.13 77 1019.4
20260901083503 65 22 3.0 11.0 0.00 0.43 0.13 78 1019.4
20260901083003 65 82 4.0 11.0 0.00 0.43 0.13 77 1019.4
20260901082501 65 320 2.0 12.0 0.00 0.43 0.13 78 1019.3
20260901082100 64 326 5.0 12.0 0.00 0.43 0.13 77 1019.3
20260901081559 64 360 3.0 11.0 0.00 0.43 0.13 80 1019.2
20260901081102 64 22 4.0 9.0 0.00 0.43 0.13 80 1019.2
20260901080558 64 336 2.0 6.0 0.00 0.43 0.13 82 1019.1
20260901080056 64 321 2.0 9.0 0.00 0.43 0.13 84 1019.1
20260901075555 63 340 1.0 8.0 0.00 0.43 0.13 85 1019.0
20260901075053 63 9 2.0 8.0 0.00 0.43 0.13 87 1018.9
20260901074552 62 333 2.0 6.0 0.00 0.43 0.13 89 1019.0
20260901074151 62 304 3.0 6.0 0.00 0.43 0.13 90 1018.9
20260901073549 61 328 3.0 6.0 0.00 0.43 0.13 92 1018.9
20260901073049 61 311 1.0 3.0 0.00 0.43 0.13 93 1018.8
20260901072549 61 328 1.0 4.0 0.00 0.43 0.13 94 1018.8
20260901072049 61 321 1.0 4.0 0.00 0.43 0.13 95 1018.7
20260901071602 61 321 1.0 4.0 0.00 0.43 0.13 96 1018.7
20260901071048 61 318 0.0 4.0 0.00 0.43 0.13 96 1018.7
20260901070546 60 348 0.0 3.0 0.00 0.43 0.13 96 1018.6
20260901070045 60 346 0.0 4.0 0.00 0.43 0.13 96 1018.5
20260901065543 60 303 0.0 2.0 0.00 0.44 0.13 96 1018.5
20260901065042 60 286 0.0 4.0 0.00 0.44 0.13 96 1018.4
20260901064541 60 290 0.0 3.0 0.00 0.44 0.13 97 1018.4
20260901064041 60 300 0.0 0.0 0.00 0.44 0.13 97 1018.4
20260901063540 59 326 0.0 0.0 0.00 0.44 0.13 97 1018.4
20260901063040 59 326 0.0 0.0 0.00 0.44 0.13 97 1018.4
20260901062539 59 326 0.0 0.0 0.00 0.44 0.13 97 1018.4
20260901062042 59 326 0.0 0.0 0.00 0.44 0.13 97 1018.4
20260901061536 59 326 0.0 0.0 0.00 0.44 0.13 96 1018.2
20260901061035 59 326 0.0 0.0 0.00 0.44 0.13 96 1018.2
20260901060534 59 326 0.0 0.0 0.00 0.44 0.13 96 1018.1
20260901060033 59 326 0.0 0.0 0.00 0.44 0.13 96 1018.1
20260901055536 59 326 0.0 2.0 0.00 0.44 0.13 96 1018.0
20260901055034 59 326 0.0 2.0 0.00 0.44 0.13 96 1018.0
20260901054530 59 326 0.0 2.0 0.00 0.44 0.13 96 1017.9
20260901054030 59 328 0.0 3.0 0.00 0.44 0.13 96 1017.8
20260901053530 59 317 0.0 2.0 0.00 0.44 0.13 97 1017.7
20260901053028 59 325 0.0 2.0 0.00 0.44 0.13 97 1017.8
20260901052528 59 327 0.0 2.0 0.00 0.44 0.13 97 1017.7
20260901052030 59 305 0.0 0.0 0.00 0.44 0.13 97 1017.8
20260901051527 59 304 0.0 0.0 0.00 0.44 0.13 97 1017.7
20260901051026 59 261 0.0 0.0 0.00 0.44 0.13 97 1017.7
20260901050526 59 261 0.0 0.0 0.00 0.44 0.13 97 1017.6
20260901050026 59 261 0.0 0.0 0.00 0.44 0.13 97 1017.6
20260901045525 59 261 0.0 0.0 0.00 0.44 0.13 96 1017.6
20260901045027 59 261 0.0 0.0 0.00 0.44 0.13 96 1017.5
20260901044523 59 261 0.0 0.0 0.00 0.44 0.13 96 1017.4
20260901044023 59 261 0.0 0.0 0.00 0.44 0.13 96 1017.4
20260901043524 59 261 0.0 0.0 0.00 0.44 0.13 96 1017.4
20260901043027 59 261 0.0 0.0 0.00 0.44 0.13 96 1017.3
20260901042525 59 261 0.0 0.0 0.00 0.44 0.13 96 1017.3
20260901042020 59 261 0.0 0.0 0.00 0.44 0.13 96 1017.2
20260901041521 59 261 0.0 0.0 0.00 0.44 0.13 96 1017.2
20260901041020 59 261 0.0 0.0 0.00 0.44 0.13 96 1017.2
20260901040521 58 261 0.0 0.0 0.00 0.44 0.13 96 1017.1
20260901040020 58 261 0.0 0.0 0.00 0.44 0.13 96 1017.1
20260901035519 58 261 0.0 0.0 0.00 0.44 0.13 96 1017.1
20260901035019 58 261 0.0 0.0 0.00 0.44 0.13 96 1017.2
20260901034519 58 261 0.0 0.0 0.00 0.44 0.13 96 1017.1
20260901034017 58 261 0.0 0.0 0.00 0.44 0.13 96 1017.1
20260901033519 59 261 0.0 0.0 0.00 0.44 0.13 96 1017.1
20260901033018 59 261 0.0 0.0 0.00 0.44 0.13 96 1017.0
20260901032517 59 261 0.0 0.0 0.00 0.44 0.13 95 1017.0
20260901032020 59 261 0.0 0.0 0.00 0.44 0.13 96 1017.0
20260901031529 59 261 0.0 0.0 0.00 0.44 0.13 95 1017.0
20260901031019 59 261 0.0 0.0 0.00 0.44 0.13 95 1016.9
20260901030515 59 261 0.0 0.0 0.00 0.44 0.13 95 1017.0
20260901030015 59 261 0.0 0.0 0.00 0.44 0.13 95 1016.9
20260901025517 59 261 0.0 0.0 0.00 0.44 0.13 95 1016.8
20260901025018 59 261 0.0 0.0 0.00 0.44 0.13 95 1016.8
20260901024514 59 261 0.0 0.0 0.00 0.44 0.13 95 1016.8
20260901024013 59 261 0.0 0.0 0.00 0.44 0.13 95 1016.8
20260901023512 60 261 0.0 0.0 0.00 0.44 0.13 95 1016.8
20260901023023 60 261 0.0 0.0 0.02 0.44 0.13 95 1016.9
20260901022517 60 261 0.0 0.0 0.09 0.44 0.13 95 1016.9
20260901022013 60 261 0.0 0.0 0.13 0.44 0.13 95 1016.9
20260901021518 60 261 0.0 0.0 0.13 0.44 0.13 95 1016.9
20260901021012 60 261 0.0 0.0 0.13 0.44 0.13 95 1016.9
20260901020513 61 261 0.0 0.0 0.13 0.44 0.13 95 1016.9
20260901020026 61 261 0.0 0.0 0.13 0.44 0.13 95 1016.8
20260901015510 61 261 0.0 0.0 0.13 0.44 0.13 95 1016.8
20260901015011 61 261 0.0 0.0 0.13 0.44 0.13 95 1016.8
20260901014515 61 261 0.0 0.0 0.13 0.44 0.13 95 1016.7
20260901014011 61 261 0.0 0.0 0.13 0.44 0.13 95 1016.7
20260901013516 61 261 0.0 4.0 0.13 0.44 0.13 95 1016.7
20260901013024 61 263 1.0 8.0 0.09 0.41 0.09 95 1016.8
20260901012510 59 74 0.0 2.0 0.02 0.33 0.02 95 1016.8
20260901012009 59 244 0.0 0.0 0.00 0.31 0.00 94 1016.5
20260901011514 59 244 0.0 0.0 0.00 0.31 0.00 94 1016.5
20260901011009 59 244 0.0 0.0 0.00 0.31 0.00 94 1016.5
20260901010507 59 244 0.0 0.0 0.00 0.31 0.00 94 1016.5
20260901010008 59 244 0.0 0.0 0.00 0.31 0.00 93 1016.5
20260901005505 59 244 0.0 0.0 0.00 0.31 0.00 93 1016.5
20260901005006 59 244 0.0 0.0 0.00 0.31 0.00 93 1016.5
20260901004505 59 244 0.0 0.0 0.00 0.31 0.00 93 1016.4
20260901004004 59 244 0.0 0.0 0.00 0.31 0.00 93 1016.5
20260901003504 59 244 0.0 0.0 0.00 0.31 0.00 93 1016.4
20260901003003 59 244 0.0 0.0 0.00 0.31 0.00 93 1016.4
20260901002503 59 244 0.0 0.0 0.00 0.31 0.00 93 1016.4
20260901002003 60 244 0.0 0.0 0.00 0.31 0.00 93 1016.4
20260901001505 60 244 0.0 0.0 0.00 0.31 0.00 93 1016.4
20260901001001 60 244 0.0 0.0 0.00 0.31 0.00 93 1016.4
20260901000503 60 244 0.0 0.0 0.00 0.31 0.00 92 1016.3
20260901000001 60 244 0.0 0.0 0.00 0.31 0.00 92 1016.3
20260831235600 60 244 0.0 0.0 0.00 0.32 0.00 92 1016.3
20260831235101 60 244 0.0 0.0 0.00 0.32 0.00 92 1016.4
20260831234559 60 244 0.0 0.0 0.00 0.32 0.00 92 1016.2
20260831234058 60 244 0.0 0.0 0.00 0.32 0.00 92 1016.2
20260831233556 61 244 0.0 0.0 0.00 0.32 0.00 92 1016.2
20260831233056 61 244 0.0 0.0 0.00 0.32 0.00 92 1016.1
20260831232555 61 244 0.0 0.0 0.00 0.32 0.00 92 1016.1
20260831232055 61 244 0.0 0.0 0.00 0.32 0.00 92 1016.0
20260831231555 61 244 0.0 0.0 0.00 0.32 0.00 92 1016.0
20260831231054 61 244 0.0 0.0 0.00 0.32 0.00 91 1016.0
20260831230554 61 244 0.0 0.0 0.00 0.32 0.00 91 1016.0
20260831230053 61 244 0.0 0.0 0.00 0.32 0.00 91 1016.0
20260831225554 62 244 0.0 0.0 0.00 0.32 0.00 91 1016.0
20260831225054 62 244 0.0 0.0 0.00 0.32 0.00 91 1016.0
20260831224555 62 244 0.0 1.0 0.00 0.32 0.00 91 1016.0
20260831224051 62 244 0.0 2.0 0.00 0.32 0.00 91 1015.9
20260831223551 62 244 0.0 3.0 0.00 0.32 0.00 91 1015.9
20260831223050 62 333 0.0 1.0 0.00 0.32 0.00 91 1015.9
20260831222549 62 333 0.0 0.0 0.00 0.32 0.00 91 1015.8
20260831222049 62 333 0.0 0.0 0.00 0.32 0.00 90 1015.8
20260831221559 62 333 0.0 0.0 0.00 0.32 0.00 90 1015.7
20260831221049 62 333 0.0 0.0 0.00 0.32 0.00 90 1015.8
20260831220547 62 333 0.0 0.0 0.00 0.32 0.00 90 1015.8
20260831220047 62 333 0.0 0.0 0.00 0.32 0.00 90 1015.7
20260831215547 62 333 0.0 0.0 0.00 0.55 0.32 90 1015.7
20260831215045 62 333 0.0 0.0 0.00 0.55 0.32 90 1015.8
20260831214555 62 333 0.0 0.0 0.00 0.55 0.32 90 1015.7
20260831214046 62 333 0.0 0.0 0.00 0.55 0.32 90 1015.7
20260831213545 62 333 0.0 0.0 0.00 0.55 0.32 89 1015.7
20260831213051 62 333 0.0 0.0 0.00 0.55 0.32 89 1015.7
20260831212544 62 333 0.0 0.0 0.00 0.55 0.32 89 1015.6
20260831212047 62 333 0.0 0.0 0.00 0.55 0.32 89 1015.6
20260831211544 62 333 0.0 0.0 0.00 0.55 0.32 89 1015.6
20260831211043 62 333 0.0 0.0 0.00 0.55 0.32 88 1015.5
20260831210543 62 333 0.0 0.0 0.00 0.55 0.32 88 1015.5
20260831210042 62 333 0.0 0.0 0.00 0.55 0.32 88 1015.5
20260831205541 62 333 0.0 0.0 0.00 0.56 0.32 87 1015.4
20260831205042 62 333 0.0 0.0 0.00 0.56 0.32 87 1015.4
20260831204545 62 333 0.0 0.0 0.00 0.56 0.32 87 1015.3
20260831204040 62 333 0.0 0.0 0.00 0.56 0.32 86 1015.3
20260831203538 63 333 0.0 0.0 0.00 0.56 0.32 86 1015.2
20260831203048 63 333 0.0 0.0 0.00 0.56 0.32 86 1015.2
20260831202543 63 333 0.0 0.0 0.00 0.56 0.32 85 1015.1
20260831202038 63 333 0.0 0.0 0.00 0.56 0.32 85 1015.2
20260831201538 64 333 0.0 0.0 0.00 0.56 0.32 85 1015.2
20260831201038 64 333 0.0 1.0 0.00 0.56 0.32 85 1015.1
20260831200538 64 333 0.0 4.0 0.00 0.56 0.32 85 1015.1
20260831200040 64 333 0.0 4.0 0.00 0.56 0.32 85 1015.0
20260831195536 64 321 0.0 4.0 0.00 0.56 0.32 84 1015.0
20260831195035 64 336 0.0 3.0 0.00 0.56 0.32 84 1014.9
20260831194535 64 322 1.0 5.0 0.00 0.56 0.32 84 1014.9
20260831194037 64 318 0.0 5.0 0.00 0.56 0.32 84 1014.8
20260831193534 64 322 1.0 5.0 0.00 0.56 0.32 83 1014.7
20260831193034 65 347 1.0 4.0 0.00 0.56 0.32 83 1014.7
20260831192532 65 333 1.0 4.0 0.00 0.56 0.32 83 1014.7
20260831192032 65 338 0.0 5.0 0.00 0.56 0.32 83 1014.6
20260831191543 65 208 1.0 6.0 0.00 0.56 0.32 83 1014.6
20260831191031 65 360 1.0 6.0 0.00 0.56 0.32 83 1014.5
20260831190530 65 355 1.0 6.0 0.00 0.56 0.32 83 1014.4
20260831190030 65 309 1.0 6.0 0.00 0.56 0.32 82 1014.4
20260831185528 65 332 2.0 6.0 0.00 0.56 0.32 82 1014.3
20260831185031 65 322 2.0 6.0 0.00 0.56 0.32 82 1014.2
20260831184529 65 311 2.0 6.0 0.00 0.56 0.32 82 1014.2
20260831184031 65 310 1.0 9.0 0.00 0.56 0.32 82 1014.0
20260831183529 65 316 1.0 10.0 0.00 0.56 0.32 82 1014.0
20260831183026 66 78 2.0 10.0 0.00 0.56 0.32 81 1013.9
20260831182525 66 336 2.0 9.0 0.00 0.56 0.32 81 1013.8
20260831182025 66 313 2.0 10.0 0.00 0.56 0.32 81 1013.8
20260831181524 66 325 4.0 10.0 0.00 0.56 0.32 81 1013.6
20260831181023 66 355 2.0 9.0 0.00 0.56 0.32 82 1013.6
20260831180521 66 296 2.0 8.0 0.00 0.56 0.32 82 1013.5
20260831180021 66 355 2.0 10.0 0.00 0.56 0.32 81 1013.4
20260831175521 66 9 2.0 10.0 0.00 0.56 0.32 81 1013.4
20260831175020 66 34 2.0 6.0 0.00 0.56 0.32 81 1013.3
20260831174520 66 318 1.0 9.0 0.00 0.56 0.32 81 1013.2
20260831174023 66 317 3.0 12.0 0.00 0.56 0.32 80 1013.2
20260831173519 66 307 4.0 12.0 0.00 0.56 0.32 80 1013.1
20260831173020 66 319 4.0 10.0 0.00 0.56 0.32 80 1013.0
20260831172517 66 330 3.0 16.0 0.00 0.56 0.32 79 1012.9
20260831172020 66 311 6.0 16.0 0.00 0.56 0.32 79 1012.9
20260831171516 66 40 5.0 13.0 0.00 0.56 0.32 79 1012.8
20260831171015 66 317 4.0 15.0 0.00 0.56 0.32 79 1012.8
20260831170515 67 323 6.0 15.0 0.00 0.56 0.32 79 1012.6
20260831170017 67 325 4.0 10.0 0.00 0.56 0.32 79 1012.5
20260831165512 66 329 4.0 15.0 0.00 0.56 0.32 79 1012.5
20260831165012 67 335 5.0 15.0 0.00 0.56 0.32 78 1012.5
20260831164511 67 303 5.0 16.0 0.00 0.56 0.32 78 1012.4
20260831164012 67 313 7.0 18.0 0.00 0.56 0.32 78 1012.4
20260831163511 67 317 6.0 18.0 0.00 0.56 0.32 78 1012.4
20260831163011 67 39 5.0 16.0 0.00 0.56 0.32 78 1012.3
20260831162508 67 355 7.0 19.0 0.00 0.56 0.32 78 1012.2
20260831162008 67 336 5.0 19.0 0.00 0.56 0.32 78 1012.2
20260831161508 67 312 6.0 18.0 0.00 0.56 0.32 78 1012.1
20260831161007 67 315 8.0 18.0 0.00 0.56 0.32 78 1012.2
20260831160507 67 311 6.0 15.0 0.00 0.56 0.32 78 1012.1
20260831160008 67 172 4.0 16.0 0.00 0.56 0.32 80 1012.0
20260831155506 66 313 4.0 16.0 0.00 0.56 0.32 78 1011.9
20260831155006 67 355 5.0 17.0 0.00 0.56 0.32 78 1011.8
20260831154505 67 308 7.0 17.0 0.00 0.56 0.32 78 1011.8
20260831154004 67 305 7.0 19.0 0.00 0.56 0.32 77 1011.8
20260831153506 66 296 6.0 19.0 0.00 0.56 0.32 80 1011.7
20260831153004 66 174 5.0 18.0 0.00 0.56 0.32 80 1011.5
20260831152502 66 273 5.0 18.0 0.00 0.56 0.32 79 1011.6
20260831152005 66 142 6.0 18.0 0.00 0.56 0.32 78 1011.5
20260831151502 67 5 3.0 13.0 0.00 0.56 0.32 78 1011.5
20260831151101 67 355 5.0 14.0 0.00 0.56 0.32 78 1011.5
20260831150601 67 327 4.0 17.0 0.00 0.56 0.32 77 1011.3
20260831150108 67 68 6.0 16.0 0.00 0.56 0.32 78 1011.3
20260831145600 67 238 5.0 17.0 0.00 0.56 0.32 77 1011.3
20260831145059 67 347 4.0 17.0 0.00 0.56 0.32 77 1011.2
20260831144559 67 303 5.0 14.0 0.00 0.56 0.32 77 1011.2
20260831144059 67 289 5.0 14.0 0.00 0.56 0.32 77 1011.1
20260831143559 67 321 4.0 18.0 0.00 0.56 0.32 77 1011.1
20260831143104 67 17 7.0 16.0 0.00 0.56 0.32 76 1011.0
20260831142556 66 79 5.0 19.0 0.00 0.56 0.32 77 1010.9
20260831142057 67 342 8.0 20.0 0.00 0.56 0.32 75 1010.8
20260831141600 67 300 5.0 20.0 0.00 0.56 0.32 78 1010.8
20260831141055 67 209 6.0 15.0 0.00 0.56 0.32 75 1010.7
20260831140556 67 317 3.0 16.0 0.00 0.56 0.32 78 1010.7
20260831140057 66 296 6.0 16.0 0.00 0.56 0.32 78 1010.6
20260831135553 66 315 6.0 16.0 0.00 0.56 0.32 77 1010.5
20260831135053 66 5 5.0 16.0 0.00 0.56 0.32 78 1010.5
20260831134555 66 234 4.0 17.0 0.00 0.56 0.32 77 1010.3
20260831134051 66 335 4.0 18.0 0.00 0.56 0.32 77 1010.2
20260831133550 66 323 4.0 18.0 0.00 0.56 0.32 76 1010.1
20260831133051 66 315 5.0 21.0 0.00 0.56 0.32 76 1010.1
20260831132550 66 247 4.0 22.0 0.00 0.56 0.32 76 1009.9
20260831132050 66 303 4.0 19.0 0.00 0.56 0.32 76 1009.9
20260831131550 66 334 5.0 20.0 0.00 0.56 0.32 77 1009.9
20260831131048 66 258 6.0 21.0 0.00 0.56 0.32 75 1009.9
20260831130550 66 186 5.0 21.0 0.00 0.56 0.32 76 1009.8
20260831130048 66 315 4.0 14.0 0.00 0.56 0.32 77 1009.7
20260831125547 66 333 6.0 20.0 0.00 0.57 0.32 76 1009.7
20260831125047 66 316 6.0 20.0 0.00 0.57 0.32 75 1009.6
20260831124557 66 292 6.0 19.0 0.00 0.57 0.32 75 1009.6
20260831124045 66 333 7.0 17.0 0.00 0.57 0.32 75 1009.6
20260831123545 67 282 6.0 18.0 0.00 0.57 0.32 74 1009.4
20260831123045 67 286 6.0 18.0 0.00 0.57 0.32 73 1009.3
20260831122544 67 33 5.0 17.0 0.00 0.57 0.32 74 1009.3
20260831122044 68 200 4.0 15.0 0.00 0.57 0.32 77 1009.1
20260831121543 67 23 6.0 15.0 0.00 0.57 0.32 75 1009.1
20260831121043 68 302 6.0 15.0 0.00 0.57 0.32 74 1009.1
20260831120543 68 233 5.0 15.0 0.00 0.57 0.32 75 1008.9
20260831120048 68 63 3.0 12.0 0.00 0.57 0.32 76 1008.9
20260831115542 68 88 3.0 13.0 0.00 0.59 0.32 78 1008.8
20260831115040 67 289 3.0 10.0 0.00 0.59 0.32 79 1008.8
20260831114548 66 80 2.0 12.0 0.01 0.59 0.32 81 1008.7
20260831114039 66 140 3.0 16.0 0.01 0.59 0.32 81 1008.7
20260831113537 66 136 1.0 16.0 0.01 0.59 0.32 81 1008.6
20260831113037 66 17 1.0 12.0 0.01 0.59 0.32 80 1008.6
20260831112535 66 15 2.0 9.0 0.01 0.59 0.32 84 1008.6
20260831112036 65 313 2.0 14.0 0.01 0.59 0.32 88 1008.5
20260831111535 65 288 2.0 14.0 0.01 0.59 0.32 90 1008.5
20260831111035 64 157 2.0 6.0 0.02 0.59 0.32 92 1008.6
20260831110534 63 320 2.0 5.0 0.02 0.59 0.32 93 1008.5
20260831110034 63 299 2.0 5.0 0.02 0.59 0.32 93 1008.4
20260831105537 62 202 1.0 8.0 0.02 0.60 0.32 92 1008.3
20260831105034 62 224 3.0 8.0 0.06 0.60 0.32 92 1008.3
20260831104634 62 142 2.0 14.0 0.13 0.59 0.31 92 1008.2
20260831104034 62 102 3.0 9.0 0.27 0.59 0.31 93 1008.0